This is the latest recevied weather packets stored in our database for station/object PU5FJO-13. If no packets are shown the sender has not sent any weather packets the latest 10 day(s).
| Time | Temp. | Humidity | Pressure | Rain* | Wind** | Luminosity | Snow |
|---|---|---|---|---|---|---|---|
| 1777491368 | 20° C | 82% | 1014.2 hPa | - | - | - | - |
| 1777490768 | 20° C | 82% | 1013.9 hPa | - | - | - | - |
| 1777490168 | 20.56° C | 80% | 1014 hPa | - | - | - | - |
| 1777489569 | 20° C | 84% | 1014.5 hPa | - | - | - | - |
| 1777488968 | 20° C | 83% | 1014.2 hPa | - | - | - | - |
| 1777488368 | 20.56° C | 80% | 1013.4 hPa | - | - | - | - |
| 1777487767 | 20.56° C | 81% | 1013.8 hPa | - | - | - | - |
| 1777487168 | 20° C | 83% | 1015 hPa | - | - | - | - |
| 1777486568 | 20.56° C | 80% | 1014.3 hPa | - | - | - | - |
| 1777485967 | 20° C | 81% | 1014.8 hPa | - | - | - | - |
| 1777485368 | 20.56° C | 79% | 1014.5 hPa | - | - | - | - |
| 1777484767 | 20.56° C | 81% | 1014.6 hPa | - | - | - | - |
| 1777484167 | 20° C | 81% | 1014.9 hPa | - | - | - | - |
| 1777483567 | 20° C | 81% | 1014.7 hPa | - | - | - | - |
| 1777482967 | 19.44° C | 84% | 1015.4 hPa | - | - | - | - |
| 1777482367 | 19.44° C | 82% | 1015.3 hPa | - | - | - | - |
| 1777481767 | 20° C | 80% | 1014.7 hPa | - | - | - | - |
| 1777481168 | 20° C | 80% | 1014.9 hPa | - | - | - | - |
| 1777480567 | 20° C | 82% | 1015.4 hPa | - | - | - | - |
| 1777479967 | 19.44° C | 83% | 1015.7 hPa | - | - | - | - |
| 1777479367 | 19.44° C | 85% | 1016.1 hPa | - | - | - | - |
| 1777478767 | 20° C | 82% | 1014.8 hPa | - | - | - | - |
| 1777478167 | 19.44° C | 82% | 1015.2 hPa | - | - | - | - |
| 1777477567 | 19.44° C | 84% | 1016.3 hPa | - | - | - | - |
| 1777476967 | 19.44° C | 82% | 1015.6 hPa | - | - | - | - |
* Rain since midnight (hover to see other rain measurements)
** Current wind speed in m/s (hover to see current wind gust speed)